GW5208 Weather Reports


Display with metric or nautical units.
time (UTC)temp
F
wind
direction
speed
MPH
gust
MPH
rain 1hr
in
rain 24hr
in
rain mn
in
humidity
%
barometer
mb
20260507093028 47 77 0.0 3.0 0.00 0.00 0.00 46 1011.4
20260507091515 47 77 0.0 1.0 0.00 0.00 0.00 44 1010.7
20260507090022 47 149 0.0 2.0 0.00 0.00 0.00 44 1010.3
20260507084522 47 149 0.0 2.0 0.00 0.00 0.00 45 1010.1
20260507083025 48 53 0.0 0.0 0.00 0.00 0.00 42 1010.0
20260507081528 49 53 1.0 2.0 0.00 0.00 0.00 41 1010.0
20260507080018 50 58 1.0 3.0 0.00 0.00 0.00 40 1009.9
20260507074528 51 87 1.0 8.0 0.00 0.00 0.00 39 1009.7
20260507073026 52 112 2.0 4.0 0.00 0.00 0.00 37 1009.3
20260507071557 54 96 3.0 5.0 0.00 0.00 0.00 35 1009.6
20260507070014 55 101 5.0 10.0 0.00 0.00 0.00 32 1009.2
20260507064522 55 53 9.0 12.0 0.00 0.00 0.00 32 1009.1
20260507063025 55 65 10.0 14.0 0.00 0.00 0.00 32 1009.1
20260507061529 56 68 12.0 23.0 0.00 0.00 0.00 33 1009.0
20260507060035 58 55 5.0 10.0 0.00 0.00 0.00 44 1008.7
20260507054520 57 360 0.0 3.0 0.00 0.00 0.00 43 1008.2
20260507053007 57 284 0.0 2.0 0.00 0.00 0.00 42 1008.0
20260507051508 57 284 0.0 0.0 0.00 0.00 0.00 41 1007.7
20260507050014 58 284 0.0 1.0 0.00 0.00 0.00 40 1007.6
20260507044517 59 284 0.0 2.0 0.00 0.00 0.00 38 1007.6
20260507043025 61 284 2.0 3.0 0.00 0.00 0.00 37 1007.7
20260507041504 63 286 1.0 3.0 0.00 0.00 0.00 35 1007.7
20260507040009 65 296 3.0 7.0 0.00 0.00 0.00 34 1007.8
20260507034528 65 307 4.0 9.0 0.00 0.00 0.00 33 1007.8
20260507033032 65 275 2.0 7.0 0.00 0.00 0.00 32 1007.9
20260507031525 66 18 1.0 3.0 0.00 0.00 0.00 30 1008.0
20260507030008 67 309 0.0 4.0 0.00 0.00 0.00 29 1007.7
20260507024514 68 316 2.0 6.0 0.00 0.00 0.00 27 1007.8
20260507023025 67 315 1.0 5.0 0.00 0.00 0.00 21 1007.7
20260507021522 68 248 2.0 3.0 0.00 0.00 0.00 21 1007.7
20260507020025 69 352 0.0 2.0 0.00 0.00 0.00 19 1007.5
20260507014513 70 352 0.0 2.0 0.00 0.00 0.00 19 1007.5
20260507013017 70 352 0.0 2.0 0.00 0.00 0.00 19 1007.5
20260507011522 70 327 2.0 4.0 0.00 0.00 0.00 19 1007.6
20260507010027 70 311 3.0 6.0 0.00 0.00 0.00 18 1007.6
20260507004535 71 356 5.0 9.0 0.00 0.00 0.00 18 1007.7
20260507003014 72 345 5.0 14.0 0.00 0.00 0.00 17 1007.6
20260507001520 74 33 5.0 10.0 0.00 0.00 0.00 17 1007.8
20260507000025 75 334 5.0 14.0 0.00 0.00 0.00 16 1007.7
20260506234506 74 74 7.0 13.0 0.00 0.00 0.00 17 1007.7
20260506233012 74 29 4.0 12.0 0.00 0.00 0.00 17 1007.6
20260506231506 74 302 5.0 11.0 0.00 0.00 0.00 17 1007.7
20260506230003 74 269 6.0 14.0 0.00 0.00 0.00 17 1007.7
20260506224506 75 316 8.0 15.0 0.00 0.00 0.00 16 1008.0
20260506223010 72 327 4.0 10.0 0.00 0.00 0.00 18 1008.3
20260506221517 73 36 4.0 6.0 0.00 0.00 0.00 18 1008.6
20260506220008 72 22 2.0 9.0 0.00 0.00 0.00 19 1008.8
20260506214505 72 258 2.0 9.0 0.00 0.00 0.00 19 1009.1
20260506213010 71 262 5.0 11.0 0.00 0.00 0.00 19 1009.5
20260506211518 69 359 1.0 4.0 0.00 0.00 0.00 21 1009.8
20260506210022 69 360 2.0 9.0 0.00 0.00 0.00 19 1010.0
20260506204506 69 352 4.0 12.0 0.00 0.00 0.00 20 1010.2
20260506203019 68 283 5.0 10.0 0.00 0.00 0.00 21 1010.3
20260506201514 68 332 4.0 13.0 0.00 0.00 0.00 20 1010.6
20260506200021 67 237 2.0 9.0 0.00 0.00 0.00 21 1010.7
20260506194524 65 342 3.0 9.0 0.00 0.00 0.00 23 1011.1
20260506193008 64 253 3.0 11.0 0.00 0.00 0.00 22 1011.4
20260506191513 64 298 4.0 8.0 0.00 0.00 0.00 23 1011.8
20260506190025 63 294 7.0 11.0 0.00 0.00 0.00 24 1012.1
20260506184522 62 288 3.0 10.0 0.00 0.00 0.00 24 1012.3
20260506183026 61 212 2.0 4.0 0.00 0.00 0.00 26 1012.5
20260506181515 61 233 5.0 10.0 0.00 0.00 0.00 23 1012.9
20260506180016 59 249 2.0 8.0 0.00 0.00 0.00 24 1013.1
20260506174522 58 156 4.0 9.0 0.00 0.00 0.00 25 1013.5
20260506173025 57 262 5.0 9.0 0.00 0.00 0.00 25 1013.8
20260506171510 56 256 4.0 8.0 0.00 0.00 0.00 22 1014.0
20260506170016 54 230 4.0 9.0 0.00 0.00 0.00 25 1014.3
20260506164518 53 278 5.0 8.0 0.00 0.00 0.00 24 1014.6
20260506163022 52 254 3.0 6.0 0.00 0.00 0.00 30 1014.7
20260506161526 50 171 3.0 8.0 0.00 0.00 0.00 32 1015.0
20260506160014 49 154 2.0 7.0 0.00 0.00 0.00 34 1015.3
20260506154518 47 145 3.0 7.0 0.00 0.00 0.00 38 1015.4
20260506153021 46 243 3.0 5.0 0.00 0.00 0.00 40 1015.7
20260506151525 44 31 0.0 5.0 0.00 0.00 0.00 46 1015.9
20260506150027 42 231 1.0 4.0 0.00 0.00 0.00 48 1016.1
20260506144520 41 236 2.0 5.0 0.00 0.00 0.00 49 1016.1
20260506143025 39 202 0.0 4.0 0.00 0.00 0.00 52 1016.4
20260506141533 38 201 2.0 4.0 0.00 0.00 0.00 55 1016.6
20260506140026 36 238 1.0 4.0 0.00 0.00 0.00 60 1016.8
20260506134527 32 149 0.0 2.0 0.00 0.00 0.00 63 1016.8
20260506133020 30 149 1.0 2.0 0.00 0.00 0.00 59 1016.7
20260506131526 29 149 0.0 0.0 0.00 0.00 0.00 59 1016.9
20260506130026 27 149 0.0 0.0 0.00 0.00 0.00 62 1016.9
20260506124525 25 149 0.0 0.0 0.00 0.00 0.00 61 1017.0
20260506123029 23 149 0.0 0.0 0.00 0.00 0.00 59 1017.0
20260506121525 22 149 0.0 0.0 0.00 0.00 0.00 58 1017.2
20260506120028 22 149 0.0 0.0 0.00 0.00 0.00 59 1017.3
20260506114510 22 149 0.0 0.0 0.00 0.00 0.00 59 1017.5
20260506113015 22 149 0.0 0.0 0.00 0.00 0.00 62 1017.5
20260506111517 21 149 0.0 0.0 0.00 0.00 0.00 59 1017.6
20260506110022 22 149 0.0 0.0 0.00 0.00 0.00 60 1017.7
20260506104507 22 149 0.0 0.0 0.00 0.00 0.00 59 1018.0
20260506103010 22 149 0.0 0.0 0.00 0.00 0.00 57 1018.1
20260506101518 23 149 0.0 0.0 0.00 0.00 0.00 61 1018.2
20260506100020 23 149 0.0 2.0 0.00 0.00 0.00 57 1018.4
20260506094524 24 149 0.0 0.0 0.00 0.00 0.00 54 1018.5